owner,sensor,date,latitude,longitude,vertical_datum,sea_water_practical_salinity,qcFlag 
DISL,ioos:station:DISL:DISL:1,2015-09-01T00:00:00Z,30.2513,-88.0778,2.043,20.94,1111122 
DISL,ioos:station:DISL:DISL:1,2015-09-01T00:30:00Z,30.2513,-88.0778,2.021,21.94,1111122 
DISL,ioos:station:DISL:DISL:1,2015-09-01T01:00:00Z,30.2513,-88.0778,2.036,22.46,1111122 
DISL,ioos:station:DISL:DISL:1,2015-09-01T01:30:00Z,30.2513,-88.0778,2.05,23.36,1111122 
DISL,ioos:station:DISL:DISL:1,2015-09-01T02:00:00Z,30.2513,-88.0778,2.067,24.99,1111122 
DISL,ioos:station:DISL:DISL:1,2015-09-01T02:30:00Z,30.2513,-88.0778,2.093,26.02,1111122 
DISL,ioos:station:DISL:DISL:1,2015-09-01T03:00:00Z,30.2513,-88.0778,2.064,26.0,1111122 
DISL,ioos:station:DISL:DISL:1,2015-09-01T03:30:00Z,30.2513,-88.0778,2.066,25.97,1111122 
DISL,ioos:station:DISL:DISL:1,2015-09-01T04:00:00Z,30.2513,-88.0778,2.075,26.46,1111122 
DISL,ioos:station:DISL:DISL:1,2015-09-01T04:30:00Z,30.2513,-88.0778,2.088,26.28,1111122 
DISL,ioos:station:DISL:DISL:1,2015-09-01T05:00:00Z,30.2513,-88.0778,2.099,25.43,1111122 
DISL,ioos:station:DISL:DISL:1,2015-09-01T05:30:00Z,30.2513,-88.0778,2.109,24.69,1111122 
DISL,ioos:station:DISL:DISL:1,2015-09-01T06:00:00Z,30.2513,-88.0778,2.104,23.75,1111122 
DISL,ioos:station:DISL:DISL:1,2015-09-01T06:30:00Z,30.2513,-88.0778,2.109,23.67,1111122 
DISL,ioos:station:DISL:DISL:1,2015-09-01T07:00:00Z,30.2513,-88.0778,2.113,22.73,1111122 
DISL,ioos:station:DISL:DISL:1,2015-09-01T07:30:00Z,30.2513,-88.0778,2.113,23.15,1111122 
DISL,ioos:station:DISL:DISL:1,2015-09-01T08:00:00Z,30.2513,-88.0778,2.087,23.41,1111122 
DISL,ioos:station:DISL:DISL:1,2015-09-01T08:30:00Z,30.2513,-88.0778,2.091,23.29,1111122 
DISL,ioos:station:DISL:DISL:1,2015-09-01T09:00:00Z,30.2513,-88.0778,2.083,23.05,1111122 
DISL,ioos:station:DISL:DISL:1,2015-09-01T09:30:00Z,30.2513,-88.0778,2.078,23.04,1111122 
DISL,ioos:station:DISL:DISL:1,2015-09-01T10:00:00Z,30.2513,-88.0778,2.059,23.05,1111122 
DISL,ioos:station:DISL:DISL:1,2015-09-01T10:30:00Z,30.2513,-88.0778,2.059,22.81,1111122 
DISL,ioos:station:DISL:DISL:1,2015-09-01T11:00:00Z,30.2513,-88.0778,2.042,22.75,1111122 
DISL,ioos:station:DISL:DISL:1,2015-09-01T11:30:00Z,30.2513,-88.0778,2.056,22.16,1111122 
DISL,ioos:station:DISL:DISL:1,2015-09-01T12:00:00Z,30.2513,-88.0778,2.017,21.5,1111122 
DISL,ioos:station:DISL:DISL:1,2015-09-01T12:30:00Z,30.2513,-88.0778,2.01,21.32,1111122 
DISL,ioos:station:DISL:DISL:1,2015-09-01T13:00:00Z,30.2513,-88.0778,2.021,21.25,1111122 
DISL,ioos:station:DISL:DISL:1,2015-09-01T13:30:00Z,30.2513,-88.0778,2.028,21.4,1111122 
DISL,ioos:station:DISL:DISL:1,2015-09-01T14:00:00Z,30.2513,-88.0778,2.027,21.63,1111122 
DISL,ioos:station:DISL:DISL:1,2015-09-01T14:30:00Z,30.2513,-88.0778,2.031,21.61,1111122 
DISL,ioos:station:DISL:DISL:1,2015-09-01T15:00:00Z,30.2513,-88.0778,2.025,21.58,1111122 
DISL,ioos:station:DISL:DISL:1,2015-09-01T15:30:00Z,30.2513,-88.0778,2.039,22.03,1111122 
DISL,ioos:station:DISL:DISL:1,2015-09-01T16:00:00Z,30.2513,-88.0778,2.039,25.89,1111122 
DISL,ioos:station:DISL:DISL:1,2015-09-01T16:30:00Z,30.2513,-88.0778,2.034,27.13,1111122 
DISL,ioos:station:DISL:DISL:1,2015-09-01T17:00:00Z,30.2513,-88.0778,2.043,24.62,1111122 
DISL,ioos:station:DISL:DISL:1,2015-09-01T17:30:00Z,30.2513,-88.0778,2.06,24.29,1111122 
DISL,ioos:station:DISL:DISL:1,2015-09-01T18:00:00Z,30.2513,-88.0778,2.065,25.32,1111122 
DISL,ioos:station:DISL:DISL:1,2015-09-01T18:30:00Z,30.2513,-88.0778,2.072,27.2,1111122 
DISL,ioos:station:DISL:DISL:1,2015-09-01T19:00:00Z,30.2513,-88.0778,2.085,26.26,1111122 
DISL,ioos:station:DISL:DISL:1,2015-09-01T19:30:00Z,30.2513,-88.0778,2.111,26.38,1111122 
DISL,ioos:station:DISL:DISL:1,2015-09-01T20:00:00Z,30.2513,-88.0778,2.086,26.49,1111122 
DISL,ioos:station:DISL:DISL:1,2015-09-01T20:30:00Z,30.2513,-88.0778,2.097,25.17,1111122 
DISL,ioos:station:DISL:DISL:1,2015-09-01T21:00:00Z,30.2513,-88.0778,2.089,23.3,1111122 
DISL,ioos:station:DISL:DISL:1,2015-09-01T21:30:00Z,30.2513,-88.0778,2.127,22.72,1111122 
DISL,ioos:station:DISL:DISL:1,2015-09-01T22:00:00Z,30.2513,-88.0778,2.127,22.85,1111122 
DISL,ioos:station:DISL:DISL:1,2015-09-01T22:30:00Z,30.2513,-88.0778,2.129,22.86,1111122 
DISL,ioos:station:DISL:DISL:1,2015-09-01T23:00:00Z,30.2513,-88.0778,2.145,22.87,1111122 
DISL,ioos:station:DISL:DISL:1,2015-09-01T23:30:00Z,30.2513,-88.0778,2.134,22.86,1111122 
DISL,ioos:station:DISL:DISL:1,2015-09-02T00:00:00Z,30.2513,-88.0778,2.166,21.95,1111122 
DISL,ioos:station:DISL:DISL:1,2015-09-02T00:30:00Z,30.2513,-88.0778,2.11,22.01,1111122 
DISL,ioos:station:DISL:DISL:1,2015-09-02T01:00:00Z,30.2513,-88.0778,2.133,21.56,1111122 
DISL,ioos:station:DISL:DISL:1,2015-09-02T01:30:00Z,30.2513,-88.0778,2.124,25.37,1111122 
DISL,ioos:station:DISL:DISL:1,2015-09-02T02:00:00Z,30.2513,-88.0778,2.151,26.92,1111122 
DISL,ioos:station:DISL:DISL:1,2015-09-02T02:30:00Z,30.2513,-88.0778,2.163,28.42,1111122 
DISL,ioos:station:DISL:DISL:1,2015-09-02T03:00:00Z,30.2513,-88.0778,2.189,29.71,1111122 
DISL,ioos:station:DISL:DISL:1,2015-09-02T03:30:00Z,30.2513,-88.0778,2.21,31.8,1111122 
DISL,ioos:station:DISL:DISL:1,2015-09-02T04:00:00Z,30.2513,-88.0778,2.169,31.62,1111122 
DISL,ioos:station:DISL:DISL:1,2015-09-02T04:30:00Z,30.2513,-88.0778,2.186,31.24,1111122 
DISL,ioos:station:DISL:DISL:1,2015-09-02T05:00:00Z,30.2513,-88.0778,2.19,29.74,1111122 
DISL,ioos:station:DISL:DISL:1,2015-09-02T05:30:00Z,30.2513,-88.0778,2.178,26.94,1111122 
DISL,ioos:station:DISL:DISL:1,2015-09-02T06:00:00Z,30.2513,-88.0778,2.172,24.35,1111122 
DISL,ioos:station:DISL:DISL:1,2015-09-02T06:30:00Z,30.2513,-88.0778,2.162,23.75,1111122 
DISL,ioos:station:DISL:DISL:1,2015-09-02T07:00:00Z,30.2513,-88.0778,2.152,23.65,1111122 
DISL,ioos:station:DISL:DISL:1,2015-09-02T07:30:00Z,30.2513,-88.0778,2.163,23.48,1111122 
DISL,ioos:station:DISL:DISL:1,2015-09-02T08:00:00Z,30.2513,-88.0778,2.137,22.76,1111122 
DISL,ioos:station:DISL:DISL:1,2015-09-02T08:30:00Z,30.2513,-88.0778,2.152,22.92,1111122 
DISL,ioos:station:DISL:DISL:1,2015-09-02T09:00:00Z,30.2513,-88.0778,2.114,23.0,1111122 
DISL,ioos:station:DISL:DISL:1,2015-09-02T09:30:00Z,30.2513,-88.0778,2.117,23.46,1111122 
DISL,ioos:station:DISL:DISL:1,2015-09-02T10:00:00Z,30.2513,-88.0778,2.084,23.34,1111122 
DISL,ioos:station:DISL:DISL:1,2015-09-02T10:30:00Z,30.2513,-88.0778,2.075,23.64,1111122 
DISL,ioos:station:DISL:DISL:1,2015-09-02T11:00:00Z,30.2513,-88.0778,2.054,23.84,1111122 
DISL,ioos:station:DISL:DISL:1,2015-09-02T11:30:00Z,30.2513,-88.0778,2.062,22.65,1111122 
DISL,ioos:station:DISL:DISL:1,2015-09-02T12:00:00Z,30.2513,-88.0778,2.014,22.72,1111122 
DISL,ioos:station:DISL:DISL:1,2015-09-02T12:30:00Z,30.2513,-88.0778,2.015,23.03,1111122 
DISL,ioos:station:DISL:DISL:1,2015-09-02T13:00:00Z,30.2513,-88.0778,1.99,23.0,1111122 
DISL,ioos:station:DISL:DISL:1,2015-09-02T13:30:00Z,30.2513,-88.0778,1.976,22.79,1111122 
DISL,ioos:station:DISL:DISL:1,2015-09-02T14:00:00Z,30.2513,-88.0778,1.959,23.28,1111122 
DISL,ioos:station:DISL:DISL:1,2015-09-02T14:30:00Z,30.2513,-88.0778,2.0,22.9,1111122 
DISL,ioos:station:DISL:DISL:1,2015-09-02T15:00:00Z,30.2513,-88.0778,1.942,22.59,1111122 
DISL,ioos:station:DISL:DISL:1,2015-09-02T15:30:00Z,30.2513,-88.0778,1.976,21.84,1111122 
DISL,ioos:station:DISL:DISL:1,2015-09-02T16:00:00Z,30.2513,-88.0778,1.976,21.95,1111122 
DISL,ioos:station:DISL:DISL:1,2015-09-02T16:30:00Z,30.2513,-88.0778,1.959,21.78,1111122 
DISL,ioos:station:DISL:DISL:1,2015-09-02T17:00:00Z,30.2513,-88.0778,1.969,21.85,1111122 
DISL,ioos:station:DISL:DISL:1,2015-09-02T17:30:00Z,30.2513,-88.0778,1.945,21.8,1111122 
DISL,ioos:station:DISL:DISL:1,2015-09-02T18:00:00Z,30.2513,-88.0778,1.967,22.58,1111122 
DISL,ioos:station:DISL:DISL:1,2015-09-02T18:30:00Z,30.2513,-88.0778,1.948,23.79,1111122 
DISL,ioos:station:DISL:DISL:1,2015-09-02T19:00:00Z,30.2513,-88.0778,1.974,23.74,1111122 
DISL,ioos:station:DISL:DISL:1,2015-09-02T19:30:00Z,30.2513,-88.0778,1.973,24.27,1111122 
DISL,ioos:station:DISL:DISL:1,2015-09-02T20:00:00Z,30.2513,-88.0778,1.981,24.77,1111122 
DISL,ioos:station:DISL:DISL:1,2015-09-02T20:30:00Z,30.2513,-88.0778,1.985,24.81,1111122 
DISL,ioos:station:DISL:DISL:1,2015-09-02T21:00:00Z,30.2513,-88.0778,1.995,24.06,1111122 
DISL,ioos:station:DISL:DISL:1,2015-09-02T21:30:00Z,30.2513,-88.0778,1.983,22.33,1111122 
DISL,ioos:station:DISL:DISL:1,2015-09-02T22:00:00Z,30.2513,-88.0778,1.917,22.61,1111122 
DISL,ioos:station:DISL:DISL:1,2015-09-02T22:30:00Z,30.2513,-88.0778,2.003,22.84,1111122 
DISL,ioos:station:DISL:DISL:1,2015-09-02T23:00:00Z,30.2513,-88.0778,2.066,22.73,1111122 
DISL,ioos:station:DISL:DISL:1,2015-09-02T23:30:00Z,30.2513,-88.0778,2.085,22.79,1111122 
DISL,ioos:station:DISL:DISL:1,2015-09-03T00:00:00Z,30.2513,-88.0778,2.107,22.8,1111122 
DISL,ioos:station:DISL:DISL:1,2015-09-03T00:30:00Z,30.2513,-88.0778,2.115,22.35,1111122 
DISL,ioos:station:DISL:DISL:1,2015-09-03T01:00:00Z,30.2513,-88.0778,2.114,24.47,1111122 
DISL,ioos:station:DISL:DISL:1,2015-09-03T01:30:00Z,30.2513,-88.0778,2.13,24.47,1111122 
DISL,ioos:station:DISL:DISL:1,2015-09-03T02:00:00Z,30.2513,-88.0778,2.154,24.9,1111122 
DISL,ioos:station:DISL:DISL:1,2015-09-03T02:30:00Z,30.2513,-88.0778,2.163,29.15,1111122 
DISL,ioos:station:DISL:DISL:1,2015-09-03T03:00:00Z,30.2513,-88.0778,2.164,29.6,1111122 
DISL,ioos:station:DISL:DISL:1,2015-09-03T03:30:00Z,30.2513,-88.0778,2.192,29.73,1111122 
DISL,ioos:station:DISL:DISL:1,2015-09-03T04:00:00Z,30.2513,-88.0778,2.193,30.07,1111122 
DISL,ioos:station:DISL:DISL:1,2015-09-03T04:30:00Z,30.2513,-88.0778,2.2,30.61,1111122 
DISL,ioos:station:DISL:DISL:1,2015-09-03T05:00:00Z,30.2513,-88.0778,2.201,29.66,1111122 
DISL,ioos:station:DISL:DISL:1,2015-09-03T05:30:00Z,30.2513,-88.0778,2.213,30.14,1111122 
DISL,ioos:station:DISL:DISL:1,2015-09-03T06:00:00Z,30.2513,-88.0778,2.207,28.54,1111122 
DISL,ioos:station:DISL:DISL:1,2015-09-03T06:30:00Z,30.2513,-88.0778,2.218,26.18,1111122 
DISL,ioos:station:DISL:DISL:1,2015-09-03T07:00:00Z,30.2513,-88.0778,2.226,24.72,1111122 
DISL,ioos:station:DISL:DISL:1,2015-09-03T07:30:00Z,30.2513,-88.0778,2.205,23.87,1111122 
DISL,ioos:station:DISL:DISL:1,2015-09-03T08:00:00Z,30.2513,-88.0778,2.217,23.87,1111122 
DISL,ioos:station:DISL:DISL:1,2015-09-03T08:30:00Z,30.2513,-88.0778,2.19,22.78,1111122 
DISL,ioos:station:DISL:DISL:1,2015-09-03T09:00:00Z,30.2513,-88.0778,2.22,23.35,1111122 
DISL,ioos:station:DISL:DISL:1,2015-09-03T09:30:00Z,30.2513,-88.0778,2.206,22.4,1111122 
DISL,ioos:station:DISL:DISL:1,2015-09-03T10:00:00Z,30.2513,-88.0778,2.203,22.45,1111122 
DISL,ioos:station:DISL:DISL:1,2015-09-03T10:30:00Z,30.2513,-88.0778,2.189,22.87,1111122 
DISL,ioos:station:DISL:DISL:1,2015-09-03T11:00:00Z,30.2513,-88.0778,2.142,22.78,1111122 
DISL,ioos:station:DISL:DISL:1,2015-09-03T11:30:00Z,30.2513,-88.0778,2.117,23.4,1111122 
DISL,ioos:station:DISL:DISL:1,2015-09-03T12:00:00Z,30.2513,-88.0778,2.078,22.94,1111122 
DISL,ioos:station:DISL:DISL:1,2015-09-03T12:30:00Z,30.2513,-88.0778,2.091,22.88,1111122 
DISL,ioos:station:DISL:DISL:1,2015-09-03T13:00:00Z,30.2513,-88.0778,2.067,22.54,1111122 
DISL,ioos:station:DISL:DISL:1,2015-09-03T13:30:00Z,30.2513,-88.0778,2.083,21.93,1111122 
DISL,ioos:station:DISL:DISL:1,2015-09-03T14:00:00Z,30.2513,-88.0778,2.071,22.52,1111122 
DISL,ioos:station:DISL:DISL:1,2015-09-03T14:30:00Z,30.2513,-88.0778,2.019,22.49,1111122 
DISL,ioos:station:DISL:DISL:1,2015-09-03T15:00:00Z,30.2513,-88.0778,1.995,22.05,1111122 
DISL,ioos:station:DISL:DISL:1,2015-09-03T15:30:00Z,30.2513,-88.0778,1.974,22.1,1111122 
DISL,ioos:station:DISL:DISL:1,2015-09-03T16:00:00Z,30.2513,-88.0778,1.962,21.76,1111122 
DISL,ioos:station:DISL:DISL:1,2015-09-03T16:30:00Z,30.2513,-88.0778,1.951,21.81,1111122 
DISL,ioos:station:DISL:DISL:1,2015-09-03T17:00:00Z,30.2513,-88.0778,1.954,21.63,1111122 
DISL,ioos:station:DISL:DISL:1,2015-09-03T17:30:00Z,30.2513,-88.0778,1.961,21.89,1111122 
DISL,ioos:station:DISL:DISL:1,2015-09-03T18:00:00Z,30.2513,-88.0778,1.962,21.91,1111122 
DISL,ioos:station:DISL:DISL:1,2015-09-03T18:30:00Z,30.2513,-88.0778,1.985,22.06,1111122 
DISL,ioos:station:DISL:DISL:1,2015-09-03T19:00:00Z,30.2513,-88.0778,1.971,21.85,1111122 
DISL,ioos:station:DISL:DISL:1,2015-09-03T19:30:00Z,30.2513,-88.0778,1.963,22.0,1111122 
DISL,ioos:station:DISL:DISL:1,2015-09-03T20:00:00Z,30.2513,-88.0778,1.932,21.89,1111122 
DISL,ioos:station:DISL:DISL:1,2015-09-03T20:30:00Z,30.2513,-88.0778,1.919,22.18,1111122 
DISL,ioos:station:DISL:DISL:1,2015-09-03T21:00:00Z,30.2513,-88.0778,1.942,22.13,1111122 
DISL,ioos:station:DISL:DISL:1,2015-09-03T21:30:00Z,30.2513,-88.0778,1.946,22.71,1111122 
DISL,ioos:station:DISL:DISL:1,2015-09-03T22:00:00Z,30.2513,-88.0778,1.949,22.46,1111122 
DISL,ioos:station:DISL:DISL:1,2015-09-03T22:30:00Z,30.2513,-88.0778,1.996,22.48,1111122 
DISL,ioos:station:DISL:DISL:1,2015-09-03T23:00:00Z,30.2513,-88.0778,2.016,22.54,1111122 
DISL,ioos:station:DISL:DISL:1,2015-09-03T23:30:00Z,30.2513,-88.0778,2.033,22.28,1111122 
DISL,ioos:station:DISL:DISL:1,2015-09-04T00:00:00Z,30.2513,-88.0778,2.057,23.53,1111122 
DISL,ioos:station:DISL:DISL:1,2015-09-04T00:30:00Z,30.2513,-88.0778,2.062,23.47,1111122 
DISL,ioos:station:DISL:DISL:1,2015-09-04T01:00:00Z,30.2513,-88.0778,2.07,23.61,1111122 
DISL,ioos:station:DISL:DISL:1,2015-09-04T01:30:00Z,30.2513,-88.0778,2.065,23.54,1111122 
DISL,ioos:station:DISL:DISL:1,2015-09-04T02:00:00Z,30.2513,-88.0778,2.1,23.28,1111122 
DISL,ioos:station:DISL:DISL:1,2015-09-04T02:30:00Z,30.2513,-88.0778,2.103,23.7,1111122 
DISL,ioos:station:DISL:DISL:1,2015-09-04T03:00:00Z,30.2513,-88.0778,2.126,25.68,1111122 
DISL,ioos:station:DISL:DISL:1,2015-09-04T03:30:00Z,30.2513,-88.0778,2.134,28.7,1111122 
DISL,ioos:station:DISL:DISL:1,2015-09-04T04:00:00Z,30.2513,-88.0778,2.148,28.6,1111122 
DISL,ioos:station:DISL:DISL:1,2015-09-04T04:30:00Z,30.2513,-88.0778,2.161,29.1,1111122 
DISL,ioos:station:DISL:DISL:1,2015-09-04T05:00:00Z,30.2513,-88.0778,2.172,29.22,1111122 
DISL,ioos:station:DISL:DISL:1,2015-09-04T05:30:00Z,30.2513,-88.0778,2.193,28.93,1111122 
DISL,ioos:station:DISL:DISL:1,2015-09-04T06:00:00Z,30.2513,-88.0778,2.201,27.09,1111122 
DISL,ioos:station:DISL:DISL:1,2015-09-04T06:30:00Z,30.2513,-88.0778,2.203,24.23,1111122 
DISL,ioos:station:DISL:DISL:1,2015-09-04T07:00:00Z,30.2513,-88.0778,2.231,22.67,1111122 
DISL,ioos:station:DISL:DISL:1,2015-09-04T07:30:00Z,30.2513,-88.0778,2.221,22.68,1111122 
DISL,ioos:station:DISL:DISL:1,2015-09-04T08:00:00Z,30.2513,-88.0778,2.242,23.79,1111122 
DISL,ioos:station:DISL:DISL:1,2015-09-04T08:30:00Z,30.2513,-88.0778,2.226,25.62,1111122 
DISL,ioos:station:DISL:DISL:1,2015-09-04T09:00:00Z,30.2513,-88.0778,2.232,24.72,1111122 
DISL,ioos:station:DISL:DISL:1,2015-09-04T09:30:00Z,30.2513,-88.0778,2.225,24.01,1111122 
DISL,ioos:station:DISL:DISL:1,2015-09-04T10:00:00Z,30.2513,-88.0778,2.213,23.6,1111122 
DISL,ioos:station:DISL:DISL:1,2015-09-04T10:30:00Z,30.2513,-88.0778,2.176,22.43,1111122 
DISL,ioos:station:DISL:DISL:1,2015-09-04T11:00:00Z,30.2513,-88.0778,2.165,22.35,1111122 
DISL,ioos:station:DISL:DISL:1,2015-09-04T11:30:00Z,30.2513,-88.0778,2.155,22.3,1111122 
DISL,ioos:station:DISL:DISL:1,2015-09-04T12:00:00Z,30.2513,-88.0778,2.129,22.08,1111122 
DISL,ioos:station:DISL:DISL:1,2015-09-04T12:30:00Z,30.2513,-88.0778,2.099,21.29,1111122 
DISL,ioos:station:DISL:DISL:1,2015-09-04T13:00:00Z,30.2513,-88.0778,2.078,22.06,1111122 
DISL,ioos:station:DISL:DISL:1,2015-09-04T13:30:00Z,30.2513,-88.0778,2.045,22.91,1111122 
DISL,ioos:station:DISL:DISL:1,2015-09-04T14:00:00Z,30.2513,-88.0778,2.032,23.82,1111122 
DISL,ioos:station:DISL:DISL:1,2015-09-04T14:30:00Z,30.2513,-88.0778,2.01,23.81,1111122 
DISL,ioos:station:DISL:DISL:1,2015-09-04T15:00:00Z,30.2513,-88.0778,2.01,24.45,1111122 
DISL,ioos:station:DISL:DISL:1,2015-09-04T15:30:00Z,30.2513,-88.0778,1.977,24.48,1111122 
DISL,ioos:station:DISL:DISL:1,2015-09-04T16:00:00Z,30.2513,-88.0778,1.962,23.1,1111122 
DISL,ioos:station:DISL:DISL:1,2015-09-04T16:30:00Z,30.2513,-88.0778,1.941,22.38,1111122 
DISL,ioos:station:DISL:DISL:1,2015-09-04T17:00:00Z,30.2513,-88.0778,1.924,22.01,1111122 
DISL,ioos:station:DISL:DISL:1,2015-09-04T17:30:00Z,30.2513,-88.0778,1.892,21.61,1111122 
DISL,ioos:station:DISL:DISL:1,2015-09-04T18:00:00Z,30.2513,-88.0778,1.894,21.44,1111122 
DISL,ioos:station:DISL:DISL:1,2015-09-04T18:30:00Z,30.2513,-88.0778,1.862,21.61,1111122 
DISL,ioos:station:DISL:DISL:1,2015-09-04T19:00:00Z,30.2513,-88.0778,1.848,20.73,1111122 
DISL,ioos:station:DISL:DISL:1,2015-09-04T19:30:00Z,30.2513,-88.0778,1.83,20.66,1111122 
DISL,ioos:station:DISL:DISL:1,2015-09-04T20:00:00Z,30.2513,-88.0778,1.848,21.08,1111122 
DISL,ioos:station:DISL:DISL:1,2015-09-04T20:30:00Z,30.2513,-88.0778,1.833,21.3,1111122 
DISL,ioos:station:DISL:DISL:1,2015-09-04T21:00:00Z,30.2513,-88.0778,1.84,21.09,1111122 
DISL,ioos:station:DISL:DISL:1,2015-09-04T21:30:00Z,30.2513,-88.0778,1.831,21.78,1111122 
DISL,ioos:station:DISL:DISL:1,2015-09-04T22:00:00Z,30.2513,-88.0778,1.853,22.98,1111122 
DISL,ioos:station:DISL:DISL:1,2015-09-04T22:30:00Z,30.2513,-88.0778,1.879,22.55,1111122 
DISL,ioos:station:DISL:DISL:1,2015-09-04T23:00:00Z,30.2513,-88.0778,1.893,23.19,1111122 
DISL,ioos:station:DISL:DISL:1,2015-09-04T23:30:00Z,30.2513,-88.0778,1.894,22.17,1111122 
DISL,ioos:station:DISL:DISL:1,2015-09-05T00:00:00Z,30.2513,-88.0778,1.883,22.54,1111122 
DISL,ioos:station:DISL:DISL:1,2015-09-05T00:30:00Z,30.2513,-88.0778,1.942,23.19,1111122 
DISL,ioos:station:DISL:DISL:1,2015-09-05T01:00:00Z,30.2513,-88.0778,1.986,22.55,1111122 
DISL,ioos:station:DISL:DISL:1,2015-09-05T01:30:00Z,30.2513,-88.0778,1.987,23.04,1111122 
DISL,ioos:station:DISL:DISL:1,2015-09-05T02:00:00Z,30.2513,-88.0778,2.026,23.05,1111122 
DISL,ioos:station:DISL:DISL:1,2015-09-05T02:30:00Z,30.2513,-88.0778,2.051,24.22,1111122 
DISL,ioos:station:DISL:DISL:1,2015-09-05T03:00:00Z,30.2513,-88.0778,2.05,23.02,1111122 
DISL,ioos:station:DISL:DISL:1,2015-09-05T03:30:00Z,30.2513,-88.0778,2.084,24.92,1111122 
DISL,ioos:station:DISL:DISL:1,2015-09-05T04:00:00Z,30.2513,-88.0778,2.098,25.28,1111122 
DISL,ioos:station:DISL:DISL:1,2015-09-05T04:30:00Z,30.2513,-88.0778,2.132,27.09,1111122 
DISL,ioos:station:DISL:DISL:1,2015-09-05T05:00:00Z,30.2513,-88.0778,2.163,25.96,1111122 
DISL,ioos:station:DISL:DISL:1,2015-09-05T05:30:00Z,30.2513,-88.0778,2.167,25.44,1111122 
DISL,ioos:station:DISL:DISL:1,2015-09-05T06:00:00Z,30.2513,-88.0778,2.185,25.87,1111122 
DISL,ioos:station:DISL:DISL:1,2015-09-05T06:30:00Z,30.2513,-88.0778,2.206,24.82,1111122 
DISL,ioos:station:DISL:DISL:1,2015-09-05T07:00:00Z,30.2513,-88.0778,2.216,24.11,1111122 
DISL,ioos:station:DISL:DISL:1,2015-09-05T07:30:00Z,30.2513,-88.0778,2.209,23.13,1111122 
DISL,ioos:station:DISL:DISL:1,2015-09-05T08:00:00Z,30.2513,-88.0778,2.212,23.79,1111122 
DISL,ioos:station:DISL:DISL:1,2015-09-05T08:30:00Z,30.2513,-88.0778,2.213,23.07,1111122 
DISL,ioos:station:DISL:DISL:1,2015-09-05T09:00:00Z,30.2513,-88.0778,2.211,24.36,1111122 
DISL,ioos:station:DISL:DISL:1,2015-09-05T09:30:00Z,30.2513,-88.0778,2.231,22.98,1111122 
DISL,ioos:station:DISL:DISL:1,2015-09-05T10:00:00Z,30.2513,-88.0778,2.225,23.28,1111122 
DISL,ioos:station:DISL:DISL:1,2015-09-05T10:30:00Z,30.2513,-88.0778,2.203,23.24,1111122 
DISL,ioos:station:DISL:DISL:1,2015-09-05T11:00:00Z,30.2513,-88.0778,2.171,23.3,1111122 
DISL,ioos:station:DISL:DISL:1,2015-09-05T11:30:00Z,30.2513,-88.0778,2.171,23.37,1111122 
DISL,ioos:station:DISL:DISL:1,2015-09-05T12:00:00Z,30.2513,-88.0778,2.149,23.37,1111122 
DISL,ioos:station:DISL:DISL:1,2015-09-05T12:30:00Z,30.2513,-88.0778,2.118,23.49,1111122 
DISL,ioos:station:DISL:DISL:1,2015-09-05T13:00:00Z,30.2513,-88.0778,2.105,23.42,1111122 
DISL,ioos:station:DISL:DISL:1,2015-09-05T13:30:00Z,30.2513,-88.0778,2.063,23.47,1111122 
DISL,ioos:station:DISL:DISL:1,2015-09-05T14:00:00Z,30.2513,-88.0778,2.05,23.53,1111122 
DISL,ioos:station:DISL:DISL:1,2015-09-05T14:30:00Z,30.2513,-88.0778,2.019,22.51,1111122 
DISL,ioos:station:DISL:DISL:1,2015-09-05T15:00:00Z,30.2513,-88.0778,1.994,22.56,1111122 
DISL,ioos:station:DISL:DISL:1,2015-09-05T15:30:00Z,30.2513,-88.0778,1.968,23.15,1111122 
DISL,ioos:station:DISL:DISL:1,2015-09-05T16:00:00Z,30.2513,-88.0778,1.941,23.53,1111122 
DISL,ioos:station:DISL:DISL:1,2015-09-05T16:30:00Z,30.2513,-88.0778,1.937,23.43,1111122 
DISL,ioos:station:DISL:DISL:1,2015-09-05T17:00:00Z,30.2513,-88.0778,1.917,22.49,1111122 
DISL,ioos:station:DISL:DISL:1,2015-09-05T17:30:00Z,30.2513,-88.0778,1.874,21.83,1111122 
DISL,ioos:station:DISL:DISL:1,2015-09-05T18:00:00Z,30.2513,-88.0778,1.85,21.72,1111122 
DISL,ioos:station:DISL:DISL:1,2015-09-05T18:30:00Z,30.2513,-88.0778,1.846,22.9,1111122 
DISL,ioos:station:DISL:DISL:1,2015-09-05T19:00:00Z,30.2513,-88.0778,1.846,22.67,1111122 
DISL,ioos:station:DISL:DISL:1,2015-09-05T19:30:00Z,30.2513,-88.0778,1.819,22.58,1111122 
DISL,ioos:station:DISL:DISL:1,2015-09-05T20:00:00Z,30.2513,-88.0778,1.792,21.78,1111122 
DISL,ioos:station:DISL:DISL:1,2015-09-05T20:30:00Z,30.2513,-88.0778,1.818,21.69,1111122 
DISL,ioos:station:DISL:DISL:1,2015-09-05T21:00:00Z,30.2513,-88.0778,1.794,21.84,1111122 
DISL,ioos:station:DISL:DISL:1,2015-09-05T21:30:00Z,30.2513,-88.0778,1.8,21.84,1111122 
DISL,ioos:station:DISL:DISL:1,2015-09-05T22:00:00Z,30.2513,-88.0778,1.821,22.31,1111122 
DISL,ioos:station:DISL:DISL:1,2015-09-05T22:30:00Z,30.2513,-88.0778,1.832,21.55,1111122 
DISL,ioos:station:DISL:DISL:1,2015-09-05T23:00:00Z,30.2513,-88.0778,1.832,21.65,1111122 
DISL,ioos:station:DISL:DISL:1,2015-09-05T23:30:00Z,30.2513,-88.0778,1.852,21.63,1111122 
DISL,ioos:station:DISL:DISL:1,2015-09-06T00:00:00Z,30.2513,-88.0778,1.872,21.77,1111122 
DISL,ioos:station:DISL:DISL:1,2015-09-06T00:30:00Z,30.2513,-88.0778,1.888,22.78,1111122 
DISL,ioos:station:DISL:DISL:1,2015-09-06T01:00:00Z,30.2513,-88.0778,1.873,22.94,1111122 
DISL,ioos:station:DISL:DISL:1,2015-09-06T01:30:00Z,30.2513,-88.0778,1.924,23.16,1111122 
DISL,ioos:station:DISL:DISL:1,2015-09-06T02:00:00Z,30.2513,-88.0778,1.918,23.45,1111122 
DISL,ioos:station:DISL:DISL:1,2015-09-06T02:30:00Z,30.2513,-88.0778,1.992,22.55,1111122 
DISL,ioos:station:DISL:DISL:1,2015-09-06T03:00:00Z,30.2513,-88.0778,2.0,22.72,1111122 
DISL,ioos:station:DISL:DISL:1,2015-09-06T03:30:00Z,30.2513,-88.0778,2.034,23.49,1111122 
DISL,ioos:station:DISL:DISL:1,2015-09-06T04:00:00Z,30.2513,-88.0778,2.059,24.57,1111122 
DISL,ioos:station:DISL:DISL:1,2015-09-06T04:30:00Z,30.2513,-88.0778,2.045,25.14,1111122 
DISL,ioos:station:DISL:DISL:1,2015-09-06T05:00:00Z,30.2513,-88.0778,2.07,24.38,1111122 
DISL,ioos:station:DISL:DISL:1,2015-09-06T05:30:00Z,30.2513,-88.0778,2.134,26.32,1111122 
DISL,ioos:station:DISL:DISL:1,2015-09-06T06:00:00Z,30.2513,-88.0778,2.173,25.56,1111122 
DISL,ioos:station:DISL:DISL:1,2015-09-06T06:30:00Z,30.2513,-88.0778,2.165,24.46,1111122 
DISL,ioos:station:DISL:DISL:1,2015-09-06T07:00:00Z,30.2513,-88.0778,2.173,25.93,1111122 
DISL,ioos:station:DISL:DISL:1,2015-09-06T07:30:00Z,30.2513,-88.0778,2.185,26.88,1111122 
DISL,ioos:station:DISL:DISL:1,2015-09-06T08:00:00Z,30.2513,-88.0778,2.184,26.21,1111122 
DISL,ioos:station:DISL:DISL:1,2015-09-06T08:30:00Z,30.2513,-88.0778,2.232,26.04,1111122 
DISL,ioos:station:DISL:DISL:1,2015-09-06T09:00:00Z,30.2513,-88.0778,2.224,26.73,1111122 
DISL,ioos:station:DISL:DISL:1,2015-09-06T09:30:00Z,30.2513,-88.0778,2.244,26.55,1111122 
DISL,ioos:station:DISL:DISL:1,2015-09-06T10:00:00Z,30.2513,-88.0778,2.255,25.64,1111122 
DISL,ioos:station:DISL:DISL:1,2015-09-06T10:30:00Z,30.2513,-88.0778,2.26,24.83,1111122 
DISL,ioos:station:DISL:DISL:1,2015-09-06T11:00:00Z,30.2513,-88.0778,2.27,26.28,1111122 
DISL,ioos:station:DISL:DISL:1,2015-09-06T11:30:00Z,30.2513,-88.0778,2.273,26.62,1111122 
DISL,ioos:station:DISL:DISL:1,2015-09-06T12:00:00Z,30.2513,-88.0778,2.26,25.21,1111122 
DISL,ioos:station:DISL:DISL:1,2015-09-06T12:30:00Z,30.2513,-88.0778,2.262,25.63,1111122 
DISL,ioos:station:DISL:DISL:1,2015-09-06T13:00:00Z,30.2513,-88.0778,2.246,25.22,1111122 
DISL,ioos:station:DISL:DISL:1,2015-09-06T13:30:00Z,30.2513,-88.0778,2.217,24.46,1111122 
DISL,ioos:station:DISL:DISL:1,2015-09-06T14:00:00Z,30.2513,-88.0778,2.188,24.02,1111122 